• In Austria
  • List of Countries
  • For 7 days
  • Water Temperature
  • Satellite Maps
  • Weather Map
  • News
  • Weather Widgets
  • user-avatar
    Login

    Hourly Weather Wlora

    Today, 12 December, Tuesday

    Time Temperature Precipitation Wind Pressure Humidity
    00:00 +9°C° 0.1 mm 11 mps 765 mmHg 84%
    01:00 +9°C° 0.1 mm 10 mps 765 mmHg 84%
    02:00 +9°C° 0.2 mm 10 mps 765 mmHg 84%
    03:00 +11°C° 0.2 mm 10 mps 764 mmHg 84%
    04:00 +11°C° 0.2 mm 9 mps 764 mmHg 84%
    05:00 +11°C° 0.2 mm 9 mps 765 mmHg 85%
    06:00 +11°C° 0.2 mm 9 mps 765 mmHg 86%
    07:00 +11°C° 0.2 mm 9 mps 765 mmHg 87%
    08:00 +12°C° 0.1 mm 9 mps 765 mmHg 85%
    09:00 +13°C° 0.1 mm 9 mps 765 mmHg 83%
    10:00 +15°C° 0.1 mm 9 mps 766 mmHg 82%
    11:00 +15°C° 0.1 mm 9 mps 765 mmHg 80%
    12:00 +16°C° 0.1 mm 9 mps 765 mmHg 78%
    13:00 +17°C° 0.1 mm 9 mps 765 mmHg 76%
    14:00 +16°C° 0.1 mm 9 mps 765 mmHg 79%
    15:00 +15°C° 0.1 mm 9 mps 765 mmHg 82%
    16:00 +13°C° 0.1 mm 8 mps 765 mmHg 85%
    17:00 +13°C° 0 mm 8 mps 765 mmHg 87%
    18:00 +12°C° 0 mm 8 mps 766 mmHg 88%
    19:00 +11°C° 0 mm 8 mps 766 mmHg 89%
    20:00 +11°C° 0 mm 8 mps 766 mmHg 88%
    21:00 +11°C° 0 mm 8 mps 766 mmHg 88%
    22:00 +11°C° 0 mm 8 mps 767 mmHg 87%
    23:00 +11°C° 0 mm 7 mps 767 mmHg 87%

    Tomorrow, 13 December, Wednesday

    Time Temperature Precipitation Wind Pressure Humidity
    00:00 +11°C° 0 mm 7 mps 767 mmHg 87%
    01:00 +11°C° 0 mm 7 mps 767 mmHg 87%
    02:00 +11°C° 0 mm 7 mps 767 mmHg 88%
    03:00 +11°C° 0 mm 7 mps 766 mmHg 88%
    04:00 +11°C° 0 mm 7 mps 766 mmHg 89%
    05:00 +11°C° 0 mm 7 mps 766 mmHg 89%
    06:00 +11°C° 0 mm 7 mps 766 mmHg 90%
    07:00 +11°C° 0 mm 7 mps 767 mmHg 90%
    08:00 +12°C° 0 mm 7 mps 767 mmHg 87%
    09:00 +13°C° 0 mm 8 mps 767 mmHg 84%
    10:00 +15°C° 0 mm 8 mps 767 mmHg 81%
    11:00 +16°C° 0 mm 8 mps 766 mmHg 79%
    12:00 +16°C° 0 mm 8 mps 766 mmHg 76%
    13:00 +17°C° 0 mm 8 mps 765 mmHg 73%
    14:00 +16°C° 0 mm 7 mps 765 mmHg 77%
    15:00 +15°C° 0 mm 7 mps 764 mmHg 81%
    16:00 +14°C° 0 mm 7 mps 764 mmHg 85%
    17:00 +14°C° 0.1 mm 7 mps 764 mmHg 87%
    18:00 +12°C° 0.1 mm 7 mps 764 mmHg 88%
    19:00 +13°C° 0.1 mm 6 mps 764 mmHg 90%
    20:00 +13°C° 0.5 mm 6 mps 764 mmHg 90%
    21:00 +13°C° 0.5 mm 5 mps 764 mmHg 91%
    22:00 +13°C° 0.5 mm 5 mps 764 mmHg 91%
    23:00 +13°C° 0.5 mm 4 mps 764 mmHg 92%

    Day after tomorrow, 14 December, Thursday

    Time Temperature Precipitation Wind Pressure Humidity
    00:00 +13°C° 0.5 mm 4 mps 764 mmHg 93%
    01:00 +13°C° 0.5 mm 4 mps 764 mmHg 95%
    02:00 +12°C° 0.2 mm 4 mps 763 mmHg 94%
    03:00 +12°C° 0.2 mm 4 mps 763 mmHg 93%
    04:00 +12°C° 0.2 mm 3 mps 763 mmHg 92%
    05:00 +12°C° 0 mm 4 mps 763 mmHg 92%
    06:00 +12°C° 0 mm 4 mps 764 mmHg 92%
    07:00 +12°C° 0 mm 4 mps 764 mmHg 92%
    08:00 +12°C° 0 mm 4 mps 764 mmHg 87%
    09:00 +13°C° 0 mm 4 mps 764 mmHg 81%
    10:00 +13°C° 0 mm 3 mps 764 mmHg 76%
    11:00 +13°C° 0 mm 3 mps 764 mmHg 70%
    12:00 +14°C° 0 mm 3 mps 764 mmHg 65%
    13:00 +15°C° 0 mm 2 mps 763 mmHg 59%
    14:00 +14°C° 0 mm 2 mps 763 mmHg 63%
    15:00 +14°C° 0 mm 2 mps 763 mmHg 66%
    16:00 +13°C° 0 mm 2 mps 763 mmHg 70%
    17:00 +12°C° 0 mm 2 mps 763 mmHg 72%
    18:00 +11°C° 0 mm 3 mps 764 mmHg 74%
    19:00 +10°C° 0 mm 3 mps 764 mmHg 76%
    20:00 +10°C° 0 mm 4 mps 764 mmHg 77%
    21:00 +10°C° 0 mm 4 mps 764 mmHg 77%
    22:00 +8°C° 0 mm 5 mps 763 mmHg 78%
    23:00 +8°C° 0 mm 5 mps 763 mmHg 78%

    15 December, Friday

    Time Temperature Precipitation Wind Pressure Humidity
    00:00 +8°C° 0 mm 6 mps 763 mmHg 77%
    01:00 +8°C° 0 mm 6 mps 763 mmHg 77%
    02:00 +8°C° 0 mm 6 mps 762 mmHg 76%
    03:00 +8°C° 0 mm 6 mps 762 mmHg 75%
    04:00 +8°C° 0 mm 6 mps 762 mmHg 74%
    05:00 +8°C° 0 mm 7 mps 762 mmHg 75%
    06:00 +9°C° 0 mm 7 mps 762 mmHg 75%
    07:00 +9°C° 0 mm 7 mps 762 mmHg 76%
    08:00 +10°C° 0 mm 8 mps 762 mmHg 76%
    09:00 +11°C° 0 mm 8 mps 762 mmHg 76%
    10:00 +13°C° 0 mm 9 mps 761 mmHg 76%
    11:00 +13°C° 0 mm 9 mps 761 mmHg 77%
    12:00 +13°C° 0 mm 9 mps 760 mmHg 78%
    13:00 +13°C° 0 mm 10 mps 759 mmHg 80%
    14:00 +13°C° 0 mm 10 mps 759 mmHg 81%
    15:00 +13°C° 0 mm 10 mps 759 mmHg 82%
    16:00 +12°C° 0 mm 10 mps 759 mmHg 84%
    17:00 +12°C° 0 mm 10 mps 759 mmHg 85%
    18:00 +12°C° 0 mm 10 mps 759 mmHg 86%
    19:00 +12°C° 0 mm 10 mps 759 mmHg 88%
    20:00 +12°C° 0.1 mm 10 mps 759 mmHg 88%
    21:00 +12°C° 0.1 mm 10 mps 759 mmHg 89%
    22:00 +12°C° 0.1 mm 10 mps 759 mmHg 90%
    23:00 +12°C° 0.1 mm 10 mps 758 mmHg 91%

    16 December, Saturday

    Time Temperature Precipitation Wind Pressure Humidity
    00:00 +12°C° 0.1 mm 9 mps 758 mmHg 91%
    01:00 +13°C° 0.1 mm 9 mps 758 mmHg 92%
    02:00 +13°C° 0.1 mm 9 mps 758 mmHg 92%
    03:00 +13°C° 0.1 mm 9 mps 758 mmHg 92%
    04:00 +13°C° 0.1 mm 9 mps 757 mmHg 92%
    05:00 +13°C° 0.1 mm 9 mps 757 mmHg 92%
    06:00 +13°C° 0.1 mm 9 mps 757 mmHg 92%
    07:00 +13°C° 0.1 mm 9 mps 757 mmHg 92%
    08:00 +15°C° 0.2 mm 9 mps 757 mmHg 88%
    09:00 +15°C° 0.2 mm 9 mps 758 mmHg 85%
    10:00 +16°C° 0.2 mm 9 mps 758 mmHg 81%
    11:00 +16°C° 0.4 mm 9 mps 757 mmHg 82%
    12:00 +16°C° 0.4 mm 9 mps 757 mmHg 82%
    13:00 +16°C° 0.4 mm 8 mps 757 mmHg 82%
    14:00 +15°C° 1.1 mm 8 mps 757 mmHg 84%
    15:00 +14°C° 1.1 mm 7 mps 757 mmHg 86%
    16:00 +12°C° 1.1 mm 7 mps 757 mmHg 87%
    17:00 +13°C° 1.5 mm 6 mps 757 mmHg 88%
    18:00 +13°C° 1.5 mm 6 mps 757 mmHg 88%
    19:00 +13°C° 1.5 mm 6 mps 758 mmHg 89%
    20:00 +13°C° 1.6 mm 5 mps 758 mmHg 90%
    21:00 +12°C° 1.6 mm 5 mps 758 mmHg 91%
    22:00 +12°C° 1.6 mm 4 mps 758 mmHg 92%
    23:00 +12°C° 1.4 mm 4 mps 758 mmHg 92%

    17 December, Sunday

    Time Temperature Precipitation Wind Pressure Humidity
    00:00 +12°C° 1.4 mm 4 mps 758 mmHg 93%
    01:00 +12°C° 1.4 mm 3 mps 758 mmHg 94%
    02:00 +12°C° 0.8 mm 3 mps 758 mmHg 93%
    03:00 +11°C° 0.8 mm 3 mps 757 mmHg 92%
    04:00 +11°C° 0.8 mm 3 mps 757 mmHg 91%
    05:00 +11°C° 0.3 mm 3 mps 757 mmHg 91%
    06:00 +11°C° 0.3 mm 3 mps 757 mmHg 90%
    07:00 +11°C° 0.3 mm 3 mps 758 mmHg 90%
    08:00 +11°C° 0.2 mm 3 mps 758 mmHg 89%
    09:00 +11°C° 0.2 mm 3 mps 758 mmHg 89%
    10:00 +11°C° 0.2 mm 3 mps 758 mmHg 88%
    11:00 +12°C° 0 mm 3 mps 758 mmHg 87%
    12:00 +12°C° 0 mm 3 mps 758 mmHg 85%
    13:00 +13°C° 0 mm 3 mps 758 mmHg 83%
    14:00 +12°C° 0 mm 3 mps 758 mmHg 83%
    15:00 +12°C° 0 mm 3 mps 758 mmHg 83%
    16:00 +12°C° 0 mm 3 mps 758 mmHg 83%
    17:00 +11°C° 0 mm 3 mps 759 mmHg 85%
    18:00 +10°C° 0 mm 3 mps 759 mmHg 87%
    19:00 +10°C° 0 mm 3 mps 759 mmHg 89%
    20:00 +10°C° 0 mm 3 mps 760 mmHg 89%
    21:00 +9°C° 0 mm 3 mps 760 mmHg 89%
    22:00 +9°C° 0 mm 3 mps 760 mmHg 90%
    23:00 +9°C° 0 mm 3 mps 760 mmHg 90%
    Show more